Date String (YYYY-MM-DD hh:mm:ss) UTC,Instrument flags,Ambient pressure (hPa),Sample flow (lpm),Bypass flow (lpm),Sample temperature (°C),Ambient temperature (°C),ASC tube jacket temperature (°C),LED temperature (°C),Box temperature (°C),Sample RH (%),Span deviation,Mass concentration (μg/m³),Mass concentration (μg/m³),Mass concentration (μg/m³)
DateTimeUTC,F1_M11,P_M11,Q1_M11,Q2_M11,T1_M11,T2_M11,T3_M11,T4_M11,T5_M11,U1_M11,ZSPAN_M11,X0_M11,X2_M11,X1_M11
2022-03-26 15:00:00,,0824.4,5.00,0.00,26.3,25.5,00.0,35.1,28.1,14.4,0000.0,0010.46,0003.93,0001.84
2022-03-26 15:01:00,,0824.3,5.01,0.00,26.3,25.5,00.0,35.2,28.1,14.8,0000.0,0010.35,0003.93,0001.85
2022-03-26 15:02:00,,0824.4,5.00,0.00,26.3,25.6,00.0,35.2,28.2,15.0,0000.0,0010.10,0003.89,0001.85
2022-03-26 15:03:00,,0824.4,5.00,0.00,26.3,25.6,00.0,35.2,28.2,14.7,0000.0,0010.01,0003.89,0001.85
2022-03-26 15:04:00,,0824.3,5.00,0.00,26.4,25.6,00.0,35.2,28.2,13.9,0000.0,0009.79,0003.82,0001.83
2022-03-26 15:05:00,,0824.3,5.01,0.00,26.4,25.7,00.0,35.2,28.3,13.0,0000.0,0009.69,0003.77,0001.81
2022-03-26 15:06:00,,0824.3,5.00,0.00,26.4,25.7,00.0,35.2,28.3,13.8,0000.0,0009.60,0003.76,0001.81
2022-03-26 15:07:00,,0824.3,5.00,0.00,26.4,25.7,00.0,35.2,28.3,15.4,0000.0,0009.58,0003.74,0001.78
2022-03-26 15:08:00,,0824.3,5.00,0.00,26.4,25.7,00.0,35.3,28.3,15.4,0000.0,0009.98,0003.79,0001.79
2022-03-26 15:09:00,,0824.3,4.99,0.00,26.5,25.8,00.0,35.3,28.3,15.4,0000.0,0010.25,0003.71,0001.78
2022-03-26 15:10:00,,0824.3,5.00,0.00,26.5,25.8,00.0,35.3,28.3,16.4,0000.0,0010.66,0003.68,0001.77
2022-03-26 15:11:00,,0824.3,4.99,0.00,26.5,25.8,00.0,35.3,28.4,12.9,0000.0,0010.17,0003.64,0001.75
2022-03-26 15:12:00,,0824.3,5.00,0.00,26.5,25.8,00.0,35.3,28.4,12.6,0000.0,0010.06,0003.61,0001.73
2022-03-26 15:13:00,,0824.3,5.00,0.00,26.5,25.8,00.0,35.4,28.4,13.7,0000.0,0010.39,0003.60,0001.69
2022-03-26 15:14:00,,0824.3,5.00,0.00,26.5,25.8,00.0,35.4,28.4,13.4,0000.0,0010.46,0003.59,0001.65
2022-03-26 15:15:00,,0824.3,5.01,0.00,26.6,25.8,00.0,35.4,28.4,14.7,0000.0,0010.88,0003.66,0001.66
2022-03-26 15:16:00,,0824.3,5.00,0.00,26.6,25.8,00.0,35.4,28.4,14.0,0000.0,0010.80,0003.63,0001.66
2022-03-26 15:17:00,,0824.3,5.00,0.00,26.6,25.8,00.0,35.4,28.4,15.7,0000.0,0010.97,0003.67,0001.72
2022-03-26 15:18:00,,0824.3,5.00,0.00,26.6,25.9,00.0,35.4,28.4,14.7,0000.0,0011.25,0003.71,0001.77
2022-03-26 15:19:00,,0824.3,5.00,0.00,26.6,25.9,00.0,35.4,28.5,12.7,0000.0,0011.04,0003.74,0001.77
2022-03-26 15:20:00,,0824.2,5.00,0.00,26.6,25.9,00.0,35.5,28.5,14.8,0000.0,0010.67,0003.76,0001.78
2022-03-26 15:21:00,,0824.2,5.00,0.00,26.7,26.0,00.0,35.5,28.5,17.0,0000.0,0010.60,0003.83,0001.88
2022-03-26 15:22:00,,0824.2,4.99,0.00,26.7,26.0,00.0,35.5,28.6,16.6,0000.0,0011.01,0003.90,0001.98
2022-03-26 15:23:00,,0824.2,5.00,0.00,26.7,26.0,00.0,35.5,28.6,17.4,0000.0,0011.63,0004.09,0002.11
2022-03-26 15:24:00,,0824.1,5.00,0.00,26.7,26.0,00.0,35.5,28.6,17.8,0000.0,0011.81,0004.21,0002.25
2022-03-26 15:25:00,,0824.1,5.00,0.00,26.8,26.1,00.0,35.6,28.6,16.8,0000.0,0012.17,0004.36,0002.42
2022-03-26 15:26:00,,0824.2,5.00,0.00,26.8,26.1,00.0,35.6,28.7,17.1,0000.0,0012.34,0004.47,0002.53
2022-03-26 15:27:00,,0824.2,5.01,0.00,26.8,26.1,00.0,35.6,28.7,16.0,0000.0,0012.44,0004.53,0002.63
2022-03-26 15:28:00,,0824.2,4.99,0.00,26.8,26.1,00.0,35.6,28.7,14.9,0000.0,0012.62,0004.59,0002.65
2022-03-26 15:29:00,,0824.1,5.00,0.00,26.9,26.1,00.0,35.6,28.7,14.7,0000.0,0012.68,0004.68,0002.63
2022-03-26 15:30:00,,0824.1,5.01,0.00,26.9,26.2,00.0,35.7,28.8,14.4,0000.0,0013.09,0004.67,0002.64
2022-03-26 15:31:00,,0824.3,5.01,0.00,26.9,26.2,00.0,35.7,28.8,15.4,0000.0,0013.11,0004.71,0002.66
2022-03-26 15:32:00,,0824.2,5.00,0.00,26.9,26.2,00.0,35.7,28.8,17.0,0000.0,0012.64,0004.69,0002.63
2022-03-26 15:33:00,,0824.2,5.00,0.00,27.0,26.2,00.0,35.7,28.8,16.8,0000.0,0012.39,0004.73,0002.66
2022-03-26 15:34:00,,0824.3,5.00,0.00,27.0,26.3,00.0,35.8,28.9,16.6,0000.0,0012.03,0004.67,0002.67
2022-03-26 15:35:00,,0824.2,4.99,0.00,27.0,26.3,00.0,35.8,28.9,16.9,0000.0,0011.89,0004.73,0002.71
2022-03-26 15:36:00,,0824.2,5.00,0.00,27.0,26.3,00.0,35.8,28.9,16.7,0000.0,0011.98,0004.75,0002.74
2022-03-26 15:37:00,,0824.2,5.00,0.00,27.1,26.3,00.0,35.8,29.0,15.7,0000.0,0011.82,0004.66,0002.74
2022-03-26 15:38:00,,0824.1,5.00,0.00,27.1,26.4,00.0,35.8,29.0,16.2,0000.0,0012.25,0004.74,0002.78
2022-03-26 15:39:00,,0824.2,4.99,0.00,27.1,26.4,00.0,35.9,29.0,16.8,0000.0,0012.44,0004.85,0002.90
2022-03-26 15:40:00,,0824.2,5.00,0.00,27.1,26.4,00.0,35.9,29.0,16.6,0000.0,0012.60,0004.90,0003.08
2022-03-26 15:41:00,,0824.2,5.00,0.00,27.2,26.4,00.0,35.9,29.0,17.1,0000.0,0012.37,0005.05,0003.24
2022-03-26 15:42:00,,0824.2,5.00,0.00,27.2,26.4,00.0,35.9,29.1,16.3,0000.0,0012.96,0005.27,0003.40
2022-03-26 15:43:00,,0824.3,5.01,0.00,27.2,26.5,00.0,36.0,29.1,14.0,0000.0,0013.62,0005.29,0003.44
2022-03-26 15:44:00,,0824.3,5.01,0.00,27.2,26.5,00.0,36.0,29.1,14.3,0000.0,0013.59,0005.23,0003.42
2022-03-26 15:45:00,,0824.2,5.00,0.00,27.2,26.5,00.0,36.0,29.1,16.0,0000.0,0014.88,0005.27,0003.47
2022-03-26 15:46:00,,0824.2,5.00,0.00,27.2,26.5,00.0,36.0,29.1,16.7,0000.0,0015.55,0005.31,0003.54
2022-03-26 15:47:00,,0824.3,4.99,0.00,27.3,26.5,00.0,36.0,29.1,16.3,0000.0,0016.40,0005.43,0003.66
2022-03-26 15:48:00,,0824.3,5.00,0.00,27.3,26.5,00.0,36.1,29.2,15.8,0000.0,0017.12,0005.62,0003.78
2022-03-26 15:49:00,,0824.2,5.00,0.00,27.3,26.5,00.0,36.1,29.2,16.5,0000.0,0017.32,0005.82,0003.94
2022-03-26 15:50:00,,0824.3,5.02,0.00,27.3,26.5,00.0,36.1,29.2,16.3,0000.0,0017.71,0006.00,0004.13
2022-03-26 15:51:00,,0824.3,5.00,0.00,27.3,26.6,00.0,36.1,29.2,15.5,0000.0,0018.57,0006.14,0004.26
2022-03-26 15:52:00,,0824.3,4.99,0.00,27.3,26.6,00.0,36.1,29.2,15.5,0000.0,0019.04,0006.28,0004.36
2022-03-26 15:53:00,,0824.2,5.01,0.00,27.4,26.6,00.0,36.2,29.2,15.6,0000.0,0018.89,0006.29,0004.39
2022-03-26 15:54:00,,0824.2,5.00,0.00,27.4,26.6,00.0,36.2,29.2,16.1,0000.0,0018.41,0006.42,0004.51
2022-03-26 15:55:00,,0824.2,4.99,0.00,27.4,26.6,00.0,36.2,29.3,15.8,0000.0,0018.99,0006.61,0004.65
2022-03-26 15:56:00,,0824.1,5.00,0.00,27.4,26.6,00.0,36.2,29.3,15.9,0000.0,0018.96,0006.79,0004.77
2022-03-26 15:57:00,,0824.2,5.00,0.00,27.4,26.6,00.0,36.2,29.3,15.8,0000.0,0019.55,0006.90,0004.82
2022-03-26 15:58:00,,0824.2,5.01,0.00,27.4,26.6,00.0,36.2,29.3,15.4,0000.0,0019.39,0006.95,0004.81
2022-03-26 15:59:00,,0824.2,4.99,0.00,27.4,26.6,00.0,36.3,29.3,15.3,0000.0,0018.73,0006.94,0004.80
